Regional Weather Roundup
Issued by NWS

Home | Current Version | Previous Version | Graphics & Text | Print | Product List | Glossary On
Versions: 1 2 3 4 5 6 7 8 9 10 11 12 13 14 15 16 17 18 19 20 21 22 23 24 25 26 27 28 29 30 31 32 33 34 35 36 37 38 39 40 41 42 43 44 45 46 47 48 49 50
000
ASUS43 KTOP 040459
RWRKS

WEATHER ROUNDUP FOR KANSAS
NATIONAL WEATHER SERVICE GOODLAND KS
1200 AM CDT TUE AUG 04 2015

NOTE:  "FAIR" INDICATES FEW OR NO CLOUDS BELOW 12,000 FEET WITH NO
SIGNIFICANT WEATHER AND/OR OBSTRUCTIONS TO VISIBILITY.

KSZ001>006-013>018-027>032-041>047-040600-
NORTHWEST KANSAS

CITY           SKY/WX    TMP DP  RH WIND       PRES   REMARKS
GOODLAND       MOCLDY    71  57  61 CALM      30.01S
HAYS           MOCLDY    79  63  57 S8        29.94F
HILL CITY      MOCLDY    79  67  66 S6        29.94R
RUSSELL        MOCLDY    78  68  71 S10       29.92S
$$

KSZ061>065-074>080-084>089-040600-
SOUTHWEST KANSAS

CITY           SKY/WX    TMP DP  RH WIND       PRES   REMARKS
DODGE CITY     CLOUDY    75  65  70 S9        29.96F
ELKHART          N/A     67  59  76 SE7         N/A
GARDEN CITY    CLOUDY    75  68  78 SE10      29.96F
GREAT BEND     CLOUDY    79  66  65 S8        29.94F
LIBERAL        CLOUDY    75  66  73 SW10        N/A
PRATT          CLOUDY    79  64  61 S5        29.96F
$$

KSZ066>073-081>083-090>101-040600-
SOUTHEAST KANSAS

CITY           SKY/WX    TMP DP  RH WIND       PRES   REMARKS
CHANUTE        PTCLDY    73  67  81 S7        29.94F
COFFEYVILLE      N/A     74  69  85 CALM      29.94R
HUTCHINSON     MOCLDY    80  68  66 S8        29.94S
MEDICINE LODGE   N/A     78  70  76 SE6       29.93F
NEWTON         PTCLDY    77  64  65 S8        29.97S
PARSONS        FAIR      69  68  96 MISG      29.95S
WICHITA INTL   MOCLDY    78  69  73 S6        29.95R
WICHITA JABRA  PTCLDY    77  68  73 S7        29.95R
$$

KSZ007>012-019>026-033>040-048>060-102>105-040600-
NORTHEAST KANSAS

CITY           SKY/WX    TMP DP  RH WIND       PRES   REMARKS
CONCORDIA      MOCLDY    75  72  90 E6        29.93S
EMPORIA        PTCLDY    75  68  78 S9        29.94R
LAWRENCE       CLEAR     76  69  79 E6        29.93S
MANHATTAN      MOCLDY    78  74  87 NE6       29.92R
OLATHE IND     PTCLDY    77  71  82 E7        29.95S
OLATHE EXE     PTCLDY    76  70  82 E3        29.94S
SALINA         MOCLDY    81  70  69 S8        29.92R
TOPEKA BILLARD CLEAR     76  71  85 CALM      29.92F
TOPEKA FORBES  CLEAR     77  70  79 CALM      29.93S
$$



USA.gov is the U.S. government's official web portal to all federal, state and local government web resources and services.